Regional Weather Roundup
Issued by NWS Upton, NY

Current Version | Previous Version | Graphics & Text | Print | Product List | Glossary Off
Versions: 1 2 3 4 5 6 7 8 9 10 11 12 13 14 15 16 17 18 19 20 21 22 23 24 25 26 27

000
ASUS41 KOKX 301005
RWROKX

REGIONAL WEATHER ROUNDUP
NATIONAL WEATHER SERVICE NEW YORK NY
600 AM EDT THU OCT 30 2014

NOTE: "FAIR" INDICATES FEW OR NO CLOUDS BELOW 12,000 FEET WITH NO
SIGNIFICANT WEATHER AND/OR OBSTRUCTIONS TO VISIBILITY.

NYZ071-072-176-178-NJZ106-104-301100-
NEW YORK CITY METRO AREA


CITY           SKY/WX    TMP DP  RH WIND       PRES   REMARKS
CENTRAL PARK   CLEAR     49  44  83 CALM      29.98R
LAGUARDIA APRT PTCLDY    51  45  79 W3        29.95R
KENNEDY INTL   CLEAR     49  46  90 CALM      29.97R
NEWARK/LIBERTY FOG       45  44  97 W10       29.97R VSB 1/2
BRNX BOT. GARD   N/A     45  43  93 NW2       29.96S
TETERBORO      CLEAR     45  42  89 CALM      29.95R
$$

NYZ177-179-078>081-301100-
LONG ISLAND NEW YORK

CITY           SKY/WX    TMP DP  RH WIND       PRES   REMARKS
FARMINGDALE    CLEAR     46  44  93 CALM      29.95R
ISLIP          PTCLDY    43  41  93 NW3       29.93R FOG
SHIRLEY        CLEAR     43  41  93 CALM      29.95R
WESTHAMPTON    CLEAR     36  33  89 CALM      29.96R
MONTAUK POINT    N/A     54  41  61 N7        29.95R
$$

NYZ052-065-067-301100-
HUDSON VALLEY

CITY           SKY/WX    TMP DP  RH WIND       PRES   REMARKS
WHITE PLAINS   CLEAR     42  41  96 N5        29.94R FOG
NEWBURGH       MOCLDY    45  45 100 W6        29.96R
MONTGOMERY     MOCLDY    39  38  96 SW3       29.95R
POUGHKEEPSIE   CLOUDY    42  41  96 CALM      29.95R
ALBANY         MOCLDY    47  41  80 SW6       29.94R
$$

NJZ001-105-106-008-010-013-015-019>022-104-301100-
NEW JERSEY

CITY           SKY/WX    TMP DP  RH WIND       PRES   REMARKS
NEWARK/LIBERTY FOG       45  44  97 W10       29.97R VSB 1/2
TETERBORO      CLEAR     45  42  89 CALM      29.95R
CALDWELL       FOG       40  39  97 W3        29.98R VSB 1/4
MORRISTOWN     FOG       41  37  87 CALM      29.98R VSB 1/4
SOMERVILLE     FOG       45  43  93 CALM      29.96R VSB 1/4
SUSSEX         FOG       42  39  89 VRB3      29.98R VSB 1/4
ANDOVER          N/A     40  40 100 CALM      29.98R
TRENTON        FOG       44  43  96 W3        29.97R VSB 1/4
MILLVILLE      FOG       44  43  96 W3        29.99R VSB 1/2
ATLANTIC CITY  CLEAR     43  43 100 NW5       29.98S FOG
WRIGHTSTOWN    FOG       45  45 100 W3        29.96S VSB 1/2
TOMS RIVER     CLOUDY    45  43  93 CALM      29.98R VSB 3/4
BELMAR         CLOUDY    43  37  81 W6        29.97R VSB 1/4
$$

PAZ047>061-062-071-301100-
EASTERN PENNSYLVANIA

CITY           SKY/WX    TMP DP  RH WIND       PRES   REMARKS
PHILADELPHIA   PTCLDY    47  42  83 SW6       29.99R
ALLENTOWN      FOG       38  37  97 W3        29.98R VSB 1/4
SCRANTON       CLOUDY    42  38  85 CALM      29.97R
$$

CTZ002-004>006-009-010-012-RIZ004-006-007-MAZ004-011-015-301100-
SOUTHERN NEW ENGLAND
 IN CT

CITY           SKY/WX    TMP DP  RH WIND       PRES   REMARKS
BRADLEY INTL   PTCLDY    39  36  89 CALM      29.93R
HARTFORD       PTCLDY    39  38  96 SE8       29.95R WCI  33
DANBURY        CLOUDY    39  37  92 CALM      29.96R FOG
WTRBRY/OXFORD  CLEAR     39  36  87 CALM      29.95S
BRIDGEPORT     CLEAR     44  44 100 N3        29.95R
MERIDEN        MOCLDY    37  35  92 CALM      29.95R
NEW HAVEN      CLEAR     40  37  89 CALM      29.95R
CHESTER        FAIR      41  37  87 CALM      29.94R
GROTON         CLEAR     39  37  92 N3        29.94R
WILLIMANTIC    FOG       38  37  97 CALM      29.94R VSB 1/4

 IN RI

CITY           SKY/WX    TMP DP  RH WIND       PRES   REMARKS
PROVIDENCE     PTCLDY    45  39  79 W3        29.93R
BLOCK ISLAND   MOCLDY    52  39  62 NW7       29.93R
WESTERLY       PTCLDY    42  39  89 CALM      29.94R

 IN MA

CITY           SKY/WX    TMP DP  RH WIND       PRES   REMARKS
BOSTON         CLEAR     47  38  71 W9        29.91R
WORCESTER      CLEAR     42  36  79 W12       29.91R
WESTFIELD      MOCLDY    34  32  92 SE5       29.93S FOG     WCI  30
PROVINCETOWN   MOCLDY    50  -2  11 NW12      29.91R
NANTUCKET      CLOUDY    54  41  61 NW9       29.91R
$$

ANZ330-335-338-340-345-350-353-355-301100-
COASTAL MARINE OBSERVATIONS


STATION/POSITION TIME  SKY/WX   TEMP    WIND        PRES    VSBY  WAVE
                                AIR SEA DIR/SP/G                  HT/PER
                 (UTC)          (F)     (DEG/KT/KT) (MB)    (MI)  (FT/S)
NY HARB ENTRANCE 1000            55 61  290/  6/  6 1014.6          2/ 6
4S FIRE IS       1000               62                N/A           2/ 6
20S FIRE ISLAND  1000            56 62  340/  6/  8 1014.1          2/ 6
23SW MTP         1000                                 N/A           3/ 6
HUDSON CANYON    1000            58 64   10/ 14/ 16 1013.4          3/ 5
EXECUTION ROCKS  1000            52 60  270/  4/  6   N/A
WESTERN LI SOUND 1000            52     280/  4/  6   N/A           0
CENTRAL LI SOUND 0900            54 61  320/  8/ 12   N/A           1/ 3
EASTERN LI SOUND 0900            52 62  340/  8/ 10   N/A
ROBBINS REEF     1000            46     290/  6/  7 1013.2
$$


>>>>>>>>>>>>>>>>>>>>>>>>>>>> KEY <<<<<<<<<<<<<<<<<<<<<<<<<<<
>                                                          <
>     SKY/WX - SKY CONDITION/PRESENT WEATHER               <
>     TMP    - TEMPERATURE IN FAHRENHEIT                   <
>     DP     - DEWPOINT IN FAHRENHEIT                      <
>     RH     - RELATIVE HUMIDITY IN PERCENT                <
>     WIND   - DIRECTION AND SPEED IN MPH                  <
>     PRES   - MEAN SEA LEVEL PRESSURE IN INCHES OF HG     <
>     WCI    - WIND CHILL INDEX                            <
>     VSB    - VISIBILITY IN MILES                         <
>     HX     - HEAT INDEX                                  <
>     TC     - TEMPERATURE IN CELSIUS                      <
>     VRB    - VARIABLE WIND DIRECTION                     <
>                                                          <
>>>>>>>>>>>>>>>>>>>>>>>>>>>> KEY <<<<<<<<<<<<<<<<<<<<<<<<<<<





USA.gov is the U.S. government's official web portal to all federal, state and local government web resources and services.